Weather History for KNBC - November, 2012

Change the Weather History Date:

Wednesday, November 14, 2012

  Actual Average Record
Temperature  
Mean Temperature 50 °F -  
Max Temperature 53 °F 67 °F 83 °F (1955)
Min Temperature 48 °F 44 °F 28 °F (1968)
Degree Days  
Heating Degree Days 14    
Moisture  
Dew Point 44 °F    
Average Humidity 77    
Maximum Humidity 89    
Minimum Humidity 71    
Precipitation  
Precipitation 0.00 in - - ()
Sea Level Pressure  
Sea Level Pressure 30.30 in    
Wind  
Wind Speed 13 mph (NE)    
Max Wind Speed 16 mph    
Max Gust Speed 20 mph    
Visibility 10 miles    
Events      
Averages and records for this station are not official NWS values.
T = Trace of Precipitation, MM = Missing Value Source: NWS Daily Summary

Daily Weather History Graph

Daily Weather History Graph

Search for Another Location

Airport or City:

Trip Planner

Search our weather history database for the weather conditions in past years. The results will help you decide how hot, cold, wet, or windy it might be!

Date:

Astronomy

Nov. 14, 2012 Rise Set
Actual Time 6:52 AM EST 5:22 PM EST
Civil Twilight 6:25 AM EST 5:48 PM EST
Nautical Twilight 5:56 AM EST 6:18 PM EST
Astronomical Twilight 5:27 AM EST 6:47 PM EST
Moon 7:36 AM EST (11/14) 6:13 PM EST (11/14)
Length of Visible Light 11h 22m
Length of Day
10h 30m
New Moon, 1% of the Moon is Illuminated
Nov 14
New Moon
Nov 20
First Quarter
Nov 28
Full
Dec 6
Last Quarter
Dec 13
New

Hourly Weather History & Observations

Time (EST) Temp. Dew Point Humidity Pressure Visibility Wind Dir Wind Speed Gust Speed Precip Events Conditions
12:56 AM 53.1 °F 50.0 °F 89% 30.27 in 6.0 mi NE 13.8 mph - N/A   Overcast
1:56 AM 52.0 °F 48.9 °F 89% 30.27 in 10.0 mi NE 13.8 mph - N/A   Overcast
2:56 AM 52.0 °F 48.0 °F 86% 30.27 in 10.0 mi NE 12.7 mph 19.6 mph N/A   Overcast
3:56 AM 52.0 °F 46.9 °F 83% 30.27 in 10.0 mi NE 13.8 mph 19.6 mph N/A   Overcast
4:56 AM 51.1 °F 45.0 °F 80% 30.29 in 10.0 mi NE 10.4 mph - N/A   Overcast
5:43 AM 50.0 °F 44.6 °F 82% 30.30 in 10.0 mi NE 13.8 mph - N/A   Overcast
5:56 AM 50.0 °F 44.1 °F 80% 30.31 in 10.0 mi NE 10.4 mph - N/A   Overcast
6:56 AM 50.0 °F 44.1 °F 80% 30.32 in 10.0 mi NE 16.1 mph - N/A   Overcast
7:56 AM 48.9 °F 43.0 °F 80% 30.35 in 10.0 mi NE 13.8 mph - N/A   Overcast
8:56 AM 48.9 °F 43.0 °F 80% 30.37 in 10.0 mi NNE 13.8 mph - N/A   Overcast
9:56 AM 50.0 °F 44.1 °F 80% 30.37 in 10.0 mi NE 15.0 mph 19.6 mph N/A   Overcast
10:18 AM 50.0 °F 42.8 °F 76% 30.37 in 10.0 mi NE 12.7 mph - N/A   Overcast
10:56 AM 51.1 °F 44.1 °F 77% 30.36 in 10.0 mi NE 12.7 mph - N/A   Overcast
11:03 AM 51.8 °F 44.6 °F 76% 30.35 in 10.0 mi NNE 12.7 mph - N/A   Overcast
11:56 AM 52.0 °F 44.1 °F 74% 30.34 in 10.0 mi NE 13.8 mph - N/A   Overcast
12:05 PM 51.8 °F 44.6 °F 76% 30.34 in 10.0 mi NE 10.4 mph - N/A   Overcast
12:56 PM 53.1 °F 44.1 °F 71% 30.31 in 10.0 mi NE 13.8 mph - N/A   Overcast
1:56 PM 53.1 °F 44.1 °F 71% 30.30 in 10.0 mi NNE 9.2 mph - N/A   Overcast
2:56 PM 53.1 °F 44.1 °F 71% 30.29 in 10.0 mi NE 10.4 mph - N/A   Overcast
3:56 PM 53.1 °F 45.0 °F 74% 30.27 in 10.0 mi NE 11.5 mph - N/A   Overcast
4:56 PM 52.0 °F 44.1 °F 74% 30.27 in 10.0 mi NNE 11.5 mph - N/A   Overcast
5:56 PM 52.0 °F 44.1 °F 74% 30.28 in 10.0 mi NE 11.5 mph - N/A   Overcast
6:37 PM 51.8 °F 42.8 °F 71% 30.28 in 10.0 mi NE 10.4 mph - N/A   Overcast
6:56 PM 51.1 °F 43.0 °F 74% 30.28 in 10.0 mi NNE 10.4 mph - N/A   Overcast
7:23 PM 51.8 °F 42.8 °F 71% 30.29 in 10.0 mi NNE 10.4 mph - N/A   Overcast
7:56 PM 51.1 °F 43.0 °F 74% 30.30 in 10.0 mi NNE 10.4 mph - N/A   Overcast
8:56 PM 51.1 °F 43.0 °F 74% 30.30 in 10.0 mi NE 11.5 mph - N/A   Overcast
9:56 PM 51.1 °F 44.1 °F 77% 30.28 in 10.0 mi NE 10.4 mph - N/A   Overcast
10:56 PM 52.0 °F 44.1 °F 74% 30.27 in 10.0 mi ENE 6.9 mph - N/A   Overcast
11:56 PM 52.0 °F 44.1 °F 74% 30.24 in 10.0 mi ENE 8.1 mph - N/A   Overcast